| time (UTC) | temp F | wind direction | speed knots | gust knots | rain 1hr in | rain 24hr in | rain mn in | humidity % | barometer mb |
| 20260505193522 | 55 | 44 | 0.9 | 3.5 | 0.00 | 0.00 | 0.00 | 67 | 1011.6 |
| 20260505193038 | 55 | 44 | 0.9 | 3.5 | 0.00 | 0.00 | 0.00 | 67 | 1011.5 |
| 20260505192526 | 55 | 41 | 0.0 | 1.7 | 0.00 | 0.00 | 0.00 | 68 | 1011.5 |
| 20260505192024 | 55 | 0 | 0.0 | 1.7 | 0.00 | 0.00 | 0.00 | 67 | 1011.4 |
| 20260505191537 | 55 | 26 | 0.0 | 2.6 | 0.00 | 0.00 | 0.00 | 66 | 1011.5 |
| 20260505191023 | 55 | 0 | 0.9 | 2.6 | 0.00 | 0.00 | 0.00 | 66 | 1011.5 |
| 20260505190523 | 55 | 0 | 0.0 | 2.6 | 0.00 | 0.00 | 0.00 | 66 | 1011.5 |
| 20260505185526 | 56 | 0 | 0.0 | 1.7 | 0.00 | 0.00 | 0.00 | 65 | 1011.5 |
| 20260505185027 | 56 | 61 | 0.0 | 1.7 | 0.00 | 0.00 | 0.00 | 65 | 1011.4 |
| 20260505184540 | 56 | 51 | 0.0 | 1.7 | 0.00 | 0.00 | 0.00 | 64 | 1011.3 |
| 20260505184025 | 56 | 0 | 0.0 | 1.7 | 0.00 | 0.00 | 0.00 | 63 | 1011.3 |
| 20260505183524 | 56 | 0 | 0.0 | 2.6 | 0.00 | 0.00 | 0.00 | 63 | 1011.3 |
| 20260505183040 | 57 | 120 | 0.0 | 2.6 | 0.00 | 0.00 | 0.00 | 63 | 1011.3 |
| 20260505182526 | 57 | 51 | 0.0 | 1.7 | 0.00 | 0.00 | 0.00 | 62 | 1011.3 |
| 20260505182024 | 57 | 319 | 0.9 | 2.6 | 0.00 | 0.00 | 0.00 | 62 | 1011.2 |
| 20260505181542 | 57 | 0 | 0.0 | 2.6 | 0.00 | 0.00 | 0.00 | 61 | 1011.3 |
| 20260505181026 | 57 | 71 | 0.9 | 3.5 | 0.00 | 0.00 | 0.00 | 61 | 1011.4 |
| 20260505180524 | 57 | 76 | 0.9 | 4.3 | 0.00 | 0.00 | 0.00 | 60 | 1011.3 |
| 20260505180040 | 57 | 34 | 0.9 | 4.3 | 0.00 | 0.00 | 0.00 | 58 | 1011.4 |
| 20260505175524 | 58 | 309 | 0.9 | 3.5 | 0.00 | 0.00 | 0.00 | 58 | 1011.5 |
| 20260505175024 | 58 | 26 | 0.9 | 3.5 | 0.00 | 0.00 | 0.00 | 57 | 1011.5 |
| 20260505174541 | 58 | 309 | 0.9 | 3.5 | 0.00 | 0.00 | 0.00 | 57 | 1011.5 |
| 20260505174026 | 58 | 9 | 0.9 | 3.5 | 0.00 | 0.00 | 0.00 | 56 | 1011.5 |
| 20260505173523 | 58 | 51 | 0.9 | 5.2 | 0.00 | 0.00 | 0.00 | 55 | 1011.5 |
| 20260505173041 | 59 | 22 | 0.9 | 5.2 | 0.00 | 0.00 | 0.00 | 53 | 1011.6 |
| 20260505172523 | 59 | 61 | 0.9 | 4.3 | 0.00 | 0.00 | 0.00 | 52 | 1011.6 |
| 20260505172023 | 59 | 137 | 0.9 | 4.3 | 0.00 | 0.00 | 0.00 | 53 | 1011.6 |
| 20260505171540 | 59 | 111 | 0.9 | 6.1 | 0.00 | 0.00 | 0.00 | 53 | 1011.7 |
| 20260505171027 | 59 | 93 | 1.7 | 6.1 | 0.00 | 0.00 | 0.00 | 52 | 1011.7 |
| 20260505170524 | 59 | 301 | 0.9 | 5.2 | 0.00 | 0.00 | 0.00 | 52 | 1011.6 |
| 20260505170038 | 59 | 292 | 1.7 | 5.2 | 0.00 | 0.00 | 0.00 | 52 | 1011.6 |
| 20260505165524 | 60 | 325 | 0.9 | 7.0 | 0.00 | 0.00 | 0.00 | 51 | 1011.7 |
| 20260505165024 | 60 | 120 | 2.6 | 7.0 | 0.00 | 0.00 | 0.00 | 50 | 1011.7 |
| 20260505164538 | 60 | 51 | 0.9 | 6.1 | 0.00 | 0.00 | 0.00 | 51 | 1011.6 |
| 20260505164025 | 60 | 129 | 1.7 | 8.7 | 0.00 | 0.00 | 0.00 | 51 | 1011.6 |
| 20260505163526 | 60 | 105 | 2.6 | 8.7 | 0.00 | 0.00 | 0.00 | 50 | 1011.7 |
| 20260505163043 | 60 | 0 | 1.7 | 7.0 | 0.00 | 0.00 | 0.00 | 51 | 1011.6 |
| 20260505162523 | 60 | 38 | 0.9 | 5.2 | 0.00 | 0.00 | 0.00 | 51 | 1011.7 |
| 20260505162024 | 60 | 162 | 1.7 | 4.3 | 0.00 | 0.00 | 0.00 | 52 | 1011.7 |
| 20260505161541 | 60 | 18 | 0.9 | 8.7 | 0.00 | 0.00 | 0.00 | 52 | 1011.6 |
| 20260505161026 | 60 | 22 | 1.7 | 8.7 | 0.00 | 0.00 | 0.00 | 52 | 1011.6 |
| 20260505160524 | 60 | 93 | 0.9 | 6.1 | 0.00 | 0.00 | 0.00 | 52 | 1011.5 |
| 20260505153037 | 61 | 126 | 1.7 | 6.1 | 0.00 | 0.00 | 0.00 | 50 | 1011.6 |
| 20260505152523 | 62 | 190 | 1.7 | 7.0 | 0.00 | 0.00 | 0.00 | 48 | 1011.6 |
| 20260505152027 | 62 | 162 | 0.9 | 7.0 | 0.00 | 0.00 | 0.00 | 49 | 1011.6 |
| 20260505151537 | 62 | 347 | 0.9 | 8.7 | 0.00 | 0.00 | 0.00 | 50 | 1011.6 |
| 20260505151025 | 62 | 344 | 1.7 | 8.7 | 0.00 | 0.00 | 0.00 | 49 | 1011.7 |
| 20260505150524 | 62 | 137 | 3.5 | 8.7 | 0.00 | 0.00 | 0.00 | 47 | 1011.7 |
| 20260505140524 | 62 | 78 | 1.7 | 7.8 | 0.00 | 0.00 | 0.00 | 53 | 1011.9 |
| 20260505130104 | 62 | 221 | 1.7 | 7.0 | 0.00 | 0.00 | 0.00 | 54 | 1012.0 |
| 20260505125023 | 62 | 93 | 1.7 | 7.8 | 0.00 | 0.00 | 0.00 | 55 | 1012.0 |
| 20260505124541 | 61 | 41 | 1.7 | 7.8 | 0.00 | 0.00 | 0.00 | 57 | 1012.0 |
| 20260505124023 | 61 | 319 | 0.9 | 7.8 | 0.00 | 0.00 | 0.00 | 57 | 1012.1 |
| 20260505123525 | 61 | 51 | 1.7 | 7.8 | 0.00 | 0.00 | 0.00 | 57 | 1012.0 |
| 20260505123043 | 61 | 38 | 0.9 | 7.8 | 0.00 | 0.00 | 0.00 | 57 | 1012.1 |
| 20260505122523 | 61 | 97 | 1.7 | 6.1 | 0.00 | 0.00 | 0.00 | 57 | 1012.1 |
| 20260505122024 | 62 | 68 | 1.7 | 6.1 | 0.00 | 0.00 | 0.00 | 56 | 1012.2 |
| 20260505121535 | 62 | 340 | 1.7 | 7.0 | 0.00 | 0.00 | 0.00 | 55 | 1012.1 |
| 20260505121024 | 62 | 225 | 2.6 | 7.0 | 0.00 | 0.00 | 0.00 | 54 | 1012.1 |
| 20260505120524 | 62 | 51 | 1.7 | 8.7 | 0.00 | 0.00 | 0.00 | 55 | 1012.1 |
| 20260505120039 | 61 | 48 | 1.7 | 8.7 | 0.00 | 0.00 | 0.00 | 56 | 1012.2 |
| 20260505115523 | 62 | 51 | 2.6 | 8.7 | 0.00 | 0.00 | 0.00 | 57 | 1012.1 |
| 20260505115023 | 61 | 305 | 1.7 | 7.0 | 0.00 | 0.00 | 0.00 | 59 | 1012.1 |
| 20260505114538 | 61 | 57 | 1.7 | 7.8 | 0.00 | 0.00 | 0.00 | 59 | 1012.1 |
| 20260505114024 | 61 | 24 | 1.7 | 7.8 | 0.00 | 0.00 | 0.00 | 58 | 1012.1 |
| 20260505113523 | 61 | 80 | 1.7 | 7.8 | 0.00 | 0.00 | 0.00 | 56 | 1012.2 |
| 20260505113044 | 61 | 9 | 1.7 | 7.8 | 0.00 | 0.00 | 0.00 | 59 | 1012.1 |
| 20260505112523 | 61 | 43 | 1.7 | 7.8 | 0.00 | 0.00 | 0.00 | 61 | 1012.1 |
| 20260505112023 | 60 | 300 | 1.7 | 7.8 | 0.00 | 0.00 | 0.00 | 59 | 1012.2 |
| 20260505111540 | 60 | 337 | 1.7 | 7.8 | 0.00 | 0.00 | 0.00 | 64 | 1012.1 |
| 20260505111023 | 60 | 93 | 1.7 | 7.8 | 0.00 | 0.00 | 0.00 | 65 | 1012.1 |
| 20260505110524 | 59 | 162 | 0.9 | 7.0 | 0.00 | 0.00 | 0.00 | 65 | 1012.1 |
| 20260505102023 | 60 | 93 | 2.6 | 9.6 | 0.00 | 0.00 | 0.00 | 66 | 1012.2 |
| 20260505101540 | 60 | 72 | 1.7 | 9.6 | 0.00 | 0.00 | 0.00 | 68 | 1012.1 |
| 20260505101023 | 60 | 341 | 1.7 | 7.8 | 0.00 | 0.00 | 0.00 | 66 | 1012.1 |
| 20260505100526 | 60 | 178 | 1.7 | 7.8 | 0.00 | 0.00 | 0.00 | 66 | 1012.1 |
| 20260505100037 | 60 | 265 | 1.7 | 7.8 | 0.00 | 0.00 | 0.00 | 65 | 1012.1 |
| 20260505095524 | 60 | 9 | 1.7 | 7.8 | 0.00 | 0.00 | 0.00 | 66 | 1012.1 |
| 20260505095023 | 60 | 66 | 1.7 | 7.8 | 0.00 | 0.00 | 0.00 | 69 | 1012.1 |
| 20260505094537 | 60 | 323 | 1.7 | 7.8 | 0.00 | 0.00 | 0.00 | 69 | 1012.1 |
| 20260505094023 | 60 | 268 | 1.7 | 7.8 | 0.00 | 0.00 | 0.00 | 68 | 1012.1 |
| 20260505093524 | 59 | 327 | 2.6 | 7.8 | 0.00 | 0.00 | 0.00 | 67 | 1012.1 |
| 20260505093036 | 60 | 49 | 1.7 | 7.8 | 0.00 | 0.00 | 0.00 | 66 | 1012.1 |
| 20260505092529 | 60 | 20 | 2.6 | 7.8 | 0.00 | 0.00 | 0.00 | 68 | 1012.1 |
| 20260505092023 | 60 | 46 | 2.6 | 7.8 | 0.00 | 0.00 | 0.00 | 70 | 1012.0 |
| 20260505091541 | 60 | 309 | 0.9 | 7.0 | 0.00 | 0.00 | 0.00 | 71 | 1012.2 |
| 20260505091028 | 59 | 280 | 1.7 | 11.3 | 0.00 | 0.00 | 0.00 | 70 | 1012.2 |
| 20260505090524 | 59 | 0 | 1.7 | 11.3 | 0.00 | 0.00 | 0.00 | 72 | 1012.2 |
| 20260505090041 | 59 | 9 | 2.6 | 9.6 | 0.00 | 0.00 | 0.00 | 71 | 1012.3 |
| 20260505085524 | 59 | 321 | 2.6 | 8.7 | 0.00 | 0.00 | 0.00 | 72 | 1012.4 |
| 20260505085024 | 59 | 259 | 2.6 | 8.7 | 0.00 | 0.00 | 0.00 | 74 | 1012.3 |
| 20260505084538 | 58 | 311 | 1.7 | 7.8 | 0.00 | 0.00 | 0.00 | 76 | 1012.3 |
| 20260505084023 | 57 | 332 | 2.6 | 7.8 | 0.00 | 0.00 | 0.00 | 78 | 1012.3 |
| 20260505083522 | 57 | 51 | 1.7 | 7.8 | 0.00 | 0.00 | 0.00 | 78 | 1012.5 |
| 20260505083036 | 56 | 291 | 1.7 | 7.8 | 0.00 | 0.00 | 0.00 | 79 | 1012.5 |
| 20260505082524 | 55 | 71 | 0.9 | 7.8 | 0.00 | 0.00 | 0.00 | 81 | 1012.5 |
| 20260505082026 | 55 | 309 | 1.7 | 7.8 | 0.00 | 0.00 | 0.00 | 80 | 1012.5 |
| 20260505081543 | 55 | 64 | 1.7 | 8.7 | 0.00 | 0.00 | 0.00 | 79 | 1012.5 |
| 20260505081024 | 55 | 38 | 1.7 | 8.7 | 0.00 | 0.00 | 0.00 | 80 | 1012.5 |
| 20260505080523 | 55 | 229 | 1.7 | 8.7 | 0.00 | 0.00 | 0.00 | 79 | 1012.5 |
| 20260505080044 | 55 | 200 | 1.7 | 7.0 | 0.00 | 0.00 | 0.00 | 80 | 1012.5 |
| 20260505075523 | 55 | 36 | 1.7 | 7.0 | 0.00 | 0.00 | 0.00 | 81 | 1012.5 |
| 20260505075025 | 55 | 131 | 1.7 | 7.0 | 0.00 | 0.00 | 0.00 | 81 | 1012.6 |
| 20260505074540 | 55 | 0 | 1.7 | 7.0 | 0.00 | 0.00 | 0.00 | 82 | 1012.5 |
| 20260505074023 | 55 | 185 | 1.7 | 7.8 | 0.00 | 0.00 | 0.00 | 83 | 1012.5 |
| 20260505073527 | 54 | 104 | 1.7 | 7.8 | 0.00 | 0.00 | 0.00 | 82 | 1012.6 |
| 20260505073046 | 54 | 16 | 1.7 | 7.8 | 0.00 | 0.00 | 0.00 | 83 | 1012.6 |
| 20260505072524 | 54 | 30 | 1.7 | 5.2 | 0.00 | 0.00 | 0.00 | 83 | 1012.7 |
| 20260505072023 | 54 | 80 | 0.9 | 7.0 | 0.00 | 0.00 | 0.00 | 83 | 1012.7 |
| 20260505071549 | 54 | 30 | 0.9 | 7.0 | 0.00 | 0.00 | 0.00 | 83 | 1012.7 |
| 20260505071023 | 54 | 330 | 1.7 | 8.7 | 0.00 | 0.00 | 0.00 | 84 | 1012.6 |
| 20260505070523 | 54 | 239 | 1.7 | 8.7 | 0.00 | 0.00 | 0.00 | 85 | 1012.7 |
| 20260505070036 | 53 | 150 | 1.7 | 8.7 | 0.00 | 0.00 | 0.00 | 87 | 1012.7 |
| 20260505065527 | 53 | 342 | 1.7 | 6.1 | 0.00 | 0.00 | 0.00 | 88 | 1012.6 |
| 20260505065026 | 52 | 325 | 0.9 | 5.2 | 0.00 | 0.00 | 0.00 | 89 | 1012.5 |
| 20260505064535 | 52 | 316 | 1.7 | 6.1 | 0.00 | 0.00 | 0.00 | 89 | 1012.5 |
| 20260505064026 | 51 | 309 | 0.9 | 6.1 | 0.00 | 0.00 | 0.00 | 90 | 1012.5 |
| 20260505063523 | 51 | 289 | 0.9 | 7.0 | 0.00 | 0.00 | 0.00 | 90 | 1012.5 |
| 20260505063038 | 51 | 9 | 1.7 | 7.0 | 0.00 | 0.00 | 0.00 | 90 | 1012.4 |
| 20260505062524 | 51 | 239 | 0.9 | 7.8 | 0.00 | 0.00 | 0.00 | 90 | 1012.6 |
| 20260505062024 | 51 | 26 | 0.9 | 7.8 | 0.00 | 0.00 | 0.00 | 91 | 1012.6 |
| 20260505061539 | 51 | 15 | 0.9 | 5.2 | 0.00 | 0.00 | 0.00 | 91 | 1012.8 |
| 20260505061023 | 51 | 309 | 0.9 | 5.2 | 0.00 | 0.00 | 0.00 | 92 | 1012.8 |
| 20260505060526 | 51 | 110 | 0.9 | 6.1 | 0.00 | 0.00 | 0.00 | 93 | 1012.8 |
| 20260505060039 | 50 | 323 | 0.9 | 6.1 | 0.00 | 0.00 | 0.00 | 93 | 1012.7 |
| 20260505055527 | 50 | 9 | 0.9 | 5.2 | 0.00 | 0.00 | 0.00 | 93 | 1012.6 |
| 20260505055023 | 50 | 46 | 1.7 | 4.3 | 0.00 | 0.00 | 0.00 | 94 | 1012.4 |
| 20260505054550 | 49 | 304 | 1.7 | 4.3 | 0.00 | 0.00 | 0.00 | 94 | 1012.3 |
| 20260505054025 | 49 | 38 | 0.9 | 4.3 | 0.00 | 0.00 | 0.00 | 94 | 1012.5 |
| 20260505053525 | 49 | 38 | 1.7 | 4.3 | 0.00 | 0.00 | 0.00 | 94 | 1012.5 |
| 20260505053054 | 49 | 137 | 0.9 | 4.3 | 0.00 | 0.00 | 0.00 | 94 | 1012.4 |
| 20260505052526 | 49 | 48 | 0.9 | 4.3 | 0.00 | 0.00 | 0.00 | 94 | 1012.4 |
| 20260505052024 | 49 | 75 | 0.9 | 4.3 | 0.00 | 0.00 | 0.00 | 94 | 1012.4 |
| 20260505051544 | 49 | 110 | 0.9 | 4.3 | 0.00 | 0.00 | 0.00 | 94 | 1012.4 |
| 20260505051023 | 49 | 9 | 0.9 | 4.3 | 0.00 | 0.00 | 0.00 | 94 | 1012.6 |
| 20260505050525 | 49 | 41 | 0.9 | 4.3 | 0.00 | 0.00 | 0.00 | 94 | 1012.4 |
| 20260505041536 | 49 | 239 | 0.9 | 4.3 | 0.00 | 0.00 | 0.00 | 94 | 1012.7 |
| 20260505041023 | 49 | 0 | 0.9 | 3.5 | 0.00 | 0.00 | 0.00 | 94 | 1012.8 |
| 20260505040527 | 49 | 34 | 0.9 | 5.2 | 0.00 | 0.00 | 0.00 | 94 | 1012.8 |
| 20260505040106 | 49 | 34 | 0.9 | 5.2 | 0.00 | 0.00 | 0.00 | 94 | 1012.9 |
| 20260505035523 | 49 | 232 | 0.9 | 5.2 | 0.00 | 0.00 | 0.00 | 94 | 1013.0 |
| 20260505035023 | 49 | 26 | 0.9 | 3.5 | 0.00 | 0.00 | 0.00 | 94 | 1013.0 |
| 20260505034540 | 49 | 0 | 0.9 | 3.5 | 0.00 | 0.00 | 0.00 | 94 | 1013.1 |
| 20260505034025 | 50 | 46 | 0.9 | 5.2 | 0.00 | 0.00 | 0.00 | 94 | 1013.1 |
| 20260505033523 | 50 | 0 | 0.9 | 5.2 | 0.00 | 0.00 | 0.00 | 94 | 1013.2 |
| 20260505033041 | 50 | 47 | 0.9 | 5.2 | 0.00 | 0.00 | 0.00 | 94 | 1013.2 |
| 20260505032526 | 50 | 316 | 0.9 | 3.5 | 0.00 | 0.00 | 0.00 | 94 | 1013.3 |
| 20260505032026 | 50 | 48 | 0.9 | 6.1 | 0.00 | 0.00 | 0.00 | 94 | 1013.3 |
| 20260505031536 | 50 | 137 | 0.9 | 6.1 | 0.00 | 0.00 | 0.00 | 94 | 1013.4 |
| 20260505031025 | 50 | 239 | 0.9 | 6.1 | 0.00 | 0.00 | 0.00 | 94 | 1013.4 |
| 20260505030523 | 50 | 93 | 0.0 | 2.6 | 0.00 | 0.00 | 0.00 | 94 | 1013.3 |
| 20260505030037 | 50 | 239 | 0.9 | 3.5 | 0.00 | 0.00 | 0.00 | 94 | 1013.2 |
| 20260505025525 | 50 | 0 | 0.9 | 5.2 | 0.00 | 0.00 | 0.00 | 94 | 1013.2 |
| 20260505025023 | 50 | 34 | 0.9 | 5.2 | 0.00 | 0.00 | 0.00 | 94 | 1013.3 |
| 20260505024540 | 50 | 131 | 0.9 | 4.3 | 0.00 | 0.00 | 0.00 | 94 | 1013.4 |
| 20260505024023 | 50 | 68 | 0.9 | 3.5 | 0.00 | 0.00 | 0.00 | 94 | 1013.3 |
| 20260505023523 | 50 | 70 | 0.9 | 2.6 | 0.00 | 0.00 | 0.00 | 94 | 1013.3 |
| 20260505023039 | 50 | 342 | 0.9 | 2.6 | 0.00 | 0.00 | 0.00 | 94 | 1013.3 |
| 20260505022522 | 50 | 178 | 0.9 | 3.5 | 0.00 | 0.00 | 0.00 | 94 | 1013.4 |
| 20260505022023 | 50 | 0 | 0.0 | 3.5 | 0.00 | 0.00 | 0.00 | 94 | 1013.5 |
| 20260505021538 | 50 | 330 | 0.9 | 3.5 | 0.00 | 0.00 | 0.00 | 94 | 1013.4 |
| 20260505021023 | 50 | 65 | 0.9 | 3.5 | 0.00 | 0.00 | 0.00 | 94 | 1013.5 |
| 20260505020523 | 50 | 0 | 0.9 | 2.6 | 0.00 | 0.00 | 0.00 | 94 | 1013.4 |
| 20260505020037 | 50 | 330 | 0.9 | 2.6 | 0.00 | 0.00 | 0.00 | 94 | 1013.4 |
| 20260505015523 | 50 | 309 | 0.9 | 3.5 | 0.00 | 0.00 | 0.00 | 94 | 1013.4 |
| 20260505015023 | 50 | 0 | 0.9 | 3.5 | 0.00 | 0.00 | 0.00 | 94 | 1013.5 |
| 20260505014536 | 50 | 51 | 0.9 | 3.5 | 0.00 | 0.00 | 0.00 | 94 | 1013.6 |
| 20260505014025 | 50 | 319 | 0.0 | 3.5 | 0.00 | 0.00 | 0.00 | 94 | 1013.6 |
| 20260505013523 | 50 | 0 | 0.9 | 4.3 | 0.00 | 0.00 | 0.00 | 94 | 1013.7 |
| 20260505013037 | 50 | 68 | 0.9 | 4.3 | 0.00 | 0.00 | 0.00 | 94 | 1013.7 |
| 20260505012526 | 50 | 9 | 0.9 | 4.3 | 0.00 | 0.00 | 0.00 | 94 | 1013.7 |
| 20260505012023 | 51 | 74 | 0.9 | 2.6 | 0.00 | 0.00 | 0.00 | 94 | 1013.7 |
| 20260505011541 | 50 | 13 | 0.9 | 2.6 | 0.00 | 0.00 | 0.00 | 94 | 1013.8 |
| 20260505011023 | 50 | 61 | 0.0 | 2.6 | 0.00 | 0.00 | 0.00 | 94 | 1013.9 |
| 20260505010522 | 50 | 44 | 0.9 | 3.5 | 0.00 | 0.00 | 0.00 | 94 | 1013.8 |
| 20260505010038 | 50 | 9 | 0.9 | 3.5 | 0.00 | 0.00 | 0.00 | 94 | 1013.8 |
| 20260505005527 | 50 | 226 | 0.9 | 3.5 | 0.00 | 0.00 | 0.00 | 93 | 1013.7 |
| 20260505005027 | 50 | 279 | 0.9 | 3.5 | 0.00 | 0.00 | 0.00 | 94 | 1013.7 |
| 20260505004541 | 51 | 32 | 0.9 | 3.5 | 0.00 | 0.00 | 0.00 | 94 | 1013.8 |
| 20260505004022 | 51 | 22 | 0.9 | 4.3 | 0.00 | 0.00 | 0.00 | 94 | 1013.8 |
| 20260505003524 | 51 | 83 | 0.9 | 4.3 | 0.00 | 0.00 | 0.00 | 94 | 1013.9 |
| 20260505003037 | 51 | 32 | 0.9 | 3.5 | 0.00 | 0.00 | 0.00 | 94 | 1014.1 |
| 20260505002523 | 51 | 239 | 0.9 | 3.5 | 0.00 | 0.00 | 0.00 | 94 | 1014.4 |
| 20260505002023 | 51 | 0 | 0.9 | 4.3 | 0.00 | 0.00 | 0.00 | 94 | 1014.4 |
| 20260505001537 | 51 | 0 | 0.9 | 5.2 | 0.00 | 0.00 | 0.00 | 94 | 1014.2 |
| 20260505001022 | 51 | 0 | 0.9 | 5.2 | 0.00 | 0.00 | 0.00 | 93 | 1014.2 |
| 20260505000523 | 51 | 30 | 1.7 | 4.3 | 0.00 | 0.00 | 0.00 | 93 | 1014.3 |
| 20260505000036 | 51 | 38 | 0.9 | 4.3 | 0.00 | 0.00 | 0.00 | 93 | 1014.3 |
| 20260504235523 | 51 | 292 | 0.9 | 4.3 | 0.00 | 0.00 | 0.00 | 93 | 1014.5 |
| 20260504235023 | 51 | 59 | 0.9 | 4.3 | 0.00 | 0.00 | 0.00 | 93 | 1014.5 |
| 20260504234543 | 51 | 22 | 0.9 | 4.3 | 0.00 | 0.00 | 0.00 | 93 | 1014.4 |
| 20260504234022 | 51 | 93 | 0.9 | 5.2 | 0.00 | 0.00 | 0.00 | 93 | 1014.3 |
| 20260504233522 | 51 | 80 | 1.7 | 6.1 | 0.00 | 0.00 | 0.00 | 92 | 1014.1 |
| 20260504233043 | 51 | 55 | 1.7 | 6.1 | 0.00 | 0.00 | 0.00 | 92 | 1014.1 |
| 20260504232523 | 52 | 48 | 0.9 | 7.0 | 0.00 | 0.00 | 0.00 | 93 | 1014.2 |
| 20260504232023 | 52 | 128 | 1.7 | 7.0 | 0.00 | 0.00 | 0.00 | 92 | 1014.2 |
| 20260504231541 | 52 | 0 | 0.9 | 5.2 | 0.00 | 0.00 | 0.00 | 92 | 1014.1 |
| 20260504231023 | 52 | 221 | 0.9 | 5.2 | 0.00 | 0.00 | 0.00 | 92 | 1014.1 |
| 20260504230523 | 52 | 9 | 0.0 | 3.5 | 0.00 | 0.00 | 0.00 | 92 | 1014.1 |
| 20260504230037 | 52 | 43 | 0.9 | 4.3 | 0.00 | 0.00 | 0.00 | 92 | 1014.1 |
| 20260504225526 | 52 | 83 | 0.9 | 5.2 | 0.00 | 0.00 | 0.00 | 92 | 1014.1 |
| 20260504225023 | 52 | 141 | 1.7 | 5.2 | 0.00 | 0.00 | 0.00 | 92 | 1014.2 |
| 20260504224536 | 52 | 72 | 0.9 | 5.2 | 0.00 | 0.00 | 0.00 | 92 | 1014.2 |
| 20260504224024 | 53 | 0 | 0.9 | 5.2 | 0.00 | 0.00 | 0.00 | 92 | 1014.2 |
| 20260504223524 | 53 | 57 | 0.9 | 6.1 | 0.00 | 0.00 | 0.00 | 92 | 1014.2 |
| 20260504223040 | 53 | 93 | 0.9 | 6.1 | 0.00 | 0.00 | 0.00 | 92 | 1014.3 |
| 20260504222522 | 53 | 115 | 1.7 | 4.3 | 0.00 | 0.00 | 0.00 | 92 | 1014.4 |
| 20260504222025 | 53 | 59 | 1.7 | 3.5 | 0.00 | 0.00 | 0.00 | 93 | 1014.5 |
| 20260504221541 | 53 | 120 | 0.9 | 4.3 | 0.00 | 0.00 | 0.00 | 93 | 1014.5 |
| 20260504221022 | 53 | 51 | 0.9 | 5.2 | 0.00 | 0.00 | 0.00 | 93 | 1014.5 |
| 20260504220522 | 53 | 68 | 0.9 | 7.0 | 0.00 | 0.00 | 0.00 | 93 | 1014.6 |
| 20260504220048 | 53 | 93 | 1.7 | 7.0 | 0.00 | 0.00 | 0.00 | 93 | 1014.7 |
| 20260504215522 | 53 | 74 | 2.6 | 7.0 | 0.00 | 0.00 | 0.00 | 93 | 1014.6 |
| 20260504215023 | 53 | 0 | 1.7 | 5.2 | 0.00 | 0.00 | 0.00 | 94 | 1014.7 |
| 20260504214548 | 53 | 76 | 0.9 | 4.3 | 0.00 | 0.00 | 0.00 | 94 | 1014.6 |
| 20260504214023 | 53 | 72 | 0.9 | 5.2 | 0.00 | 0.00 | 0.00 | 94 | 1014.6 |
| 20260504213523 | 53 | 26 | 0.9 | 5.2 | 0.00 | 0.00 | 0.00 | 94 | 1014.6 |
| 20260504213047 | 53 | 49 | 0.9 | 5.2 | 0.00 | 0.00 | 0.00 | 94 | 1014.7 |
| 20260504212523 | 53 | 0 | 0.9 | 3.5 | 0.00 | 0.00 | 0.00 | 94 | 1014.7 |
| 20260504212022 | 53 | 26 | 0.0 | 3.5 | 0.00 | 0.00 | 0.00 | 94 | 1014.7 |
| 20260504211537 | 53 | 38 | 0.9 | 2.6 | 0.00 | 0.00 | 0.00 | 94 | 1014.6 |
| 20260504211023 | 53 | 26 | 0.0 | 1.7 | 0.00 | 0.00 | 0.00 | 94 | 1014.6 |
| 20260504210523 | 53 | 0 | 0.0 | 2.6 | 0.00 | 0.00 | 0.00 | 94 | 1014.7 |
| 20260504210034 | 53 | 0 | 0.0 | 2.6 | 0.00 | 0.00 | 0.00 | 94 | 1014.5 |
| 20260504205523 | 53 | 341 | 0.9 | 2.6 | 0.00 | 0.00 | 0.00 | 94 | 1014.5 |
| 20260504205025 | 53 | 309 | 0.0 | 2.6 | 0.00 | 0.00 | 0.00 | 94 | 1014.5 |
| 20260504204539 | 53 | 287 | 0.9 | 2.6 | 0.00 | 0.00 | 0.00 | 94 | 1014.6 |
| 20260504204025 | 53 | 9 | 0.9 | 2.6 | 0.00 | 0.00 | 0.00 | 94 | 1014.5 |
| 20260504203525 | 53 | 291 | 0.9 | 2.6 | 0.00 | 0.00 | 0.00 | 94 | 1014.6 |
| 20260504203038 | 52 | 298 | 0.9 | 2.6 | 0.00 | 0.00 | 0.00 | 94 | 1014.6 |
| 20260504202523 | 52 | 0 | 0.0 | 2.6 | 0.00 | 0.00 | 0.00 | 93 | 1014.6 |
| 20260504202025 | 52 | 0 | 0.0 | 2.6 | 0.00 | 0.00 | 0.00 | 93 | 1014.6 |
| 20260504201538 | 52 | 0 | 0.9 | 2.6 | 0.00 | 0.00 | 0.00 | 93 | 1014.6 |
| 20260504201026 | 52 | 266 | 0.9 | 1.7 | 0.00 | 0.00 | 0.00 | 92 | 1014.5 |
| 20260504200523 | 52 | 255 | 0.0 | 2.6 | 0.00 | 0.00 | 0.00 | 92 | 1014.4 |
| 20260504200042 | 52 | 0 | 0.0 | 2.6 | 0.00 | 0.00 | 0.00 | 92 | 1014.3 |
| 20260504195522 | 53 | 0 | 0.0 | 1.7 | 0.00 | 0.00 | 0.00 | 91 | 1014.4 |
| 20260504195023 | 53 | 0 | 0.0 | 0.9 | 0.00 | 0.00 | 0.00 | 91 | 1014.4 |
| 20260504194540 | 53 | 0 | 0.0 | 1.7 | 0.00 | 0.00 | 0.00 | 91 | 1014.4 |
| 20260504194025 | 53 | 0 | 0.0 | 1.7 | 0.00 | 0.00 | 0.00 | 91 | 1014.3 |